Wind_Speed
20 20 20 20 21 21 22 22 22 22 22 22 22 22 22 22 22 23 24 24 24 24 24 24 25 26 27 28 28 28 28 27 26 26 25 25 25 24 24 24 23 23 23 22 22 22 22 22 22 23 23 23 23 23 23 23 23 24 24 23 23 23 23 23 23 23 23 23 23 23 23 23 23 23 23 24 24 24 25 25 23 21 19 19 19 20
20 20 20 20 20 21 22 22 21 21 21 21 22 22 22 22 23 23 24 24 23 22 22 22 23 24 25 27 28 28 28 27 26 26 25 25 25 24 24 24 23 23 23 23 23 22 22 22 23 23 23 23 23 23 23 23 23 23 23 23 22 22 22 22 22 22 22 22 22 22 22 22 22 22 23 23 23 23 24 24 24 22 21 20 20 20
20 20 20 20 20 20 21 22 21 20 21 21 22 22 22 23 23 23 23 23 22 21 21 21 22 23 24 26 27 27 26 26 26 26 25 25 25 25 24 24 24 24 23 23 23 23 23 23 23 23 23 23 23 23 23 23 22 22 21 21 21 21 21 21 21 21 21 21 21 21 21 21 21 21 22 22 22 23 23 24 24 24 22 22 21 21
20 20 21 21 20 20 21 21 21 20 20 21 21 22 22 22 22 22 23 23 23 22 22 22 22 23 23 24 25 25 25 25 25 25 25 25 25 25 25 24 24 24 24 23 23 23 23 23 23 23 23 23 23 23 23 22 21 21 21 20 20 20 20 20 20 20 20 20 20 20 20 21 21 21 21 22 23 23 23 23 24 23 23 22 22 22
21 20 21 21 21 21 21 21 21 21 20 20 20 21 21 21 22 22 23 23 23 23 23 23 23 22 22 22 23 24 25 25 25 25 25 25 25 25 25 25 24 24 24 23 23 23 23 22 22 22 22 22 22 22 22 22 22 21 21 21 21 21 21 21 21 21 21 21 21 21 21 21 21 21 21 21 22 23 23 23 23 23 23 22 22 23
22 21 21 21 21 21 21 21 20 20 20 20 20 20 21 21 21 22 22 22 23 23 23 23 22 22 22 23 23 24 25 25 25 25 25 25 25 25 24 24 24 23 23 23 23 22 22 22 21 21 21 21 21 21 21 21 21 21 21 21 21 21 21 21 21 22 22 22 22 22 22 22 21 21 21 21 22 23 23 23 23 23 23 23 23 23
23 22 21 21 21 21 20 20 20 20 20 20 20 20 20 20 20 21 21 22 22 22 23 23 23 22 22 22 23 23 23 24 24 24 24 24 24 23 23 23 23 22 22 22 22 22 21 21 21 21 20 20 20 20 21 21 21 21 21 21 21 21 21 21 21 21 21 21 21 21 21 21 21 21 21 22 22 22 23 23 23 23 23 23 23 23
23 23 22 21 21 21 20 20 20 20 20 19 19 19 20 21 21 21 22 22 21 21 22 22 22 22 22 21 21 21 21 21 21 22 21 21 21 21 21 21 21 21 22 22 21 21 21 21 21 20 20 20 20 20 20 20 20 20 20 20 20 21 21 21 21 21 21 21 21 21 21 21 21 21 22 22 22 22 23 23 23 23 23 23 23 23
24 24 23 22 21 20 20 20 20 20 20 19 19 19 21 22 23 23 23 22 21 20 20 21 21 22 22 21 20 20 20 20 20 20 20 20 20 20 20 20 21 21 21 21 21 21 21 21 21 20 20 20 20 20 20 19 19 20 20 20 20 20 20 20 20 20 20 20 20 20 21 21 21 22 22 22 22 22 22 23 23 23 23 23 23 23
25 25 24 23 21 20 19 20 22 22 20 19 19 19 20 21 22 23 23 22 22 21 19 19 20 21 22 21 20 19 19 19 20 20 20 21 21 22 22 22 22 22 22 22 22 22 22 22 21 21 21 20 20 20 19 19 19 19 19 19 18 18 18 18 18 18 18 18 18 18 19 19 19 20 21 21 21 22 22 23 23 23 23 23 24 24
24 24 23 22 21 20 19 20 21 21 20 19 19 19 20 20 20 20 21 22 23 22 20 19 19 19 20 20 20 19 19 19 19 20 20 20 21 21 22 22 22 23 23 23 23 22 22 22 21 21 21 21 20 20 20 19 19 19 18 18 18 18 18 17 17 17 17 17 17 18 18 18 18 18 19 19 20 20 20 21 21 22 23 23 23 24
23 22 21 20 19 19 19 20 20 19 19 18 18 18 19 18 18 19 19 21 22 23 22 21 20 19 19 20 20 20 19 19 19 19 19 19 19 19 19 20 21 21 22 22 22 22 22 21 21 21 21 21 20 20 20 19 19 19 18 18 18 18 17 17 17 17 17 17 17 17 18 18 18 18 18 19 19 19 19 20 20 20 21 22 22 22
22 21 19 19 18 18 18 18 19 19 18 18 17 17 17 18 18 19 19 21 22 23 23 22 21 20 20 20 19 19 18 18 18 18 18 18 18 17 17 18 18 19 19 20 20 21 21 21 20 21 21 21 21 20 20 20 20 20 19 19 19 19 18 18 18 17 17 17 17 17 17 18 18 18 18 18 19 19 19 19 19 20 20 20 21 21
19 18 17 16 16 16 17 18 18 19 19 19 18 17 18 18 19 19 20 21 22 22 21 21 21 20 20 20 19 18 17 17 17 18 18 18 17 16 16 16 18 19 19 18 19 20 20 19 19 20 21 20 20 21 21 21 21 21 21 21 20 20 19 18 17 17 17 17 17 17 17 17 18 18 18 18 18 19 19 19 19 19 19 20 20 20
14 14 13 13 14 15 17 19 19 19 20 19 18 17 18 19 20 20 20 21 21 21 19 19 19 20 19 18 17 16 15 15 15 16 17 18 17 16 15 16 18 19 19 18 20 21 20 19 18 19 20 21 22 22 22 22 22 23 22 22 21 20 19 18 17 17 16 16 16 17 17 17 18 18 18 18 18 19 19 19 19 19 19 19 20 20
16 17 16 17 18 19 21 21 20 18 18 17 17 17 18 19 20 20 20 21 21 19 17 16 16 16 17 17 15 14 13 12 13 14 16 18 19 18 16 16 17 19 20 19 20 20 19 18 19 20 22 23 23 23 23 23 23 23 23 22 21 20 19 18 17 16 16 16 16 17 17 17 18 18 18 18 19 19 19 19 19 19 19 20 20 20
22 21 20 19 19 20 21 20 18 17 16 16 16 17 18 18 19 20 20 19 17 16 14 13 10 8 10 14 13 12 12 12 13 15 17 20 21 20 17 17 17 19 20 20 20 19 19 19 19 20 22 22 23 23 23 23 23 23 22 22 21 20 19 18 17 17 16 16 17 17 17 18 18 19 19 19 20 20 20 20 20 20 20 20 20 21
19 19 18 18 18 20 21 20 18 17 16 16 16 18 19 19 20 19 19 17 16 14 14 14 11 8 6 9 11 12 13 14 15 16 19 21 22 21 19 17 18 19 21 21 21 20 20 19 19 20 21 22 22 22 22 22 22 22 22 22 21 20 20 19 18 17 17 17 17 17 18 18 19 19 20 20 20 20 21 21 21 21 21 21 21 22
18 19 19 20 21 22 21 20 18 17 17 17 17 18 18 19 20 19 19 18 18 17 16 15 14 12 9 9 11 13 14 14 16 17 18 20 22 22 20 18 17 18 20 21 21 20 19 19 19 20 21 21 22 22 22 22 22 22 22 22 21 21 20 20 19 18 18 17 17 18 18 19 19 20 20 20 20 20 21 21 21 21 21 22 22 22
21 22 22 21 21 21 19 17 16 17 18 19 19 20 20 21 20 19 19 19 19 19 18 16 13 10 10 11 13 15 15 15 16 17 17 19 21 21 20 18 17 17 19 20 20 19 18 18 19 20 20 21 22 22 21 21 22 22 22 22 21 21 21 20 19 19 18 18 17 18 18 18 19 19 20 20 20 20 20 21 21 21 21 21 22 22
22 22 23 23 22 21 19 18 19 20 20 20 21 21 21 21 20 20 20 19 19 17 15 12 10 10 12 13 15 17 17 16 16 16 17 18 19 20 20 18 17 18 19 20 20 19 17 17 17 18 20 21 21 21 21 21 21 21 22 21 21 21 20 20 20 19 19 18 18 18 18 18 19 19 19 20 20 20 20 20 21 21 21 21 21 21
23 24 24 24 24 23 23 23 22 21 21 21 22 22 22 22 22 21 20 18 15 12 9 9 11 14 15 16 18 18 17 16 15 16 16 15 18 20 20 18 17 18 19 20 19 18 17 16 17 18 20 20 21 21 21 21 21 21 21 21 21 21 20 20 20 20 19 19 18 18 18 19 19 19 19 20 20 20 20 20 20 20 21 21 21 21
25 25 26 27 27 27 27 25 24 22 21 21 22 23 24 22 20 18 15 13 11 10 11 14 17 18 18 18 18 18 17 15 15 15 14 12 15 19 19 18 17 18 20 20 20 18 17 17 17 18 19 20 20 20 20 20 21 21 21 21 21 21 21 21 20 20 20 19 19 18 19 19 19 19 19 19 20 20 20 20 20 20 20 20 21 21
27 27 28 28 28 27 26 23 21 20 21 22 23 23 22 19 17 15 13 13 14 15 17 19 20 19 18 18 17 16 16 15 14 14 14 13 16 18 19 18 18 19 21 21 20 19 19 18 18 18 19 20 20 20 20 20 20 20 20 20 20 21 21 21 21 20 20 19 19 19 19 19 19 19 19 19 19 19 19 20 20 20 20 20 20 20
28 28 28 28 27 26 24 22 22 23 24 24 22 19 17 16 16 16 16 17 17 17 17 17 17 16 16 16 16 16 16 15 13 13 13 14 16 18 19 18 18 19 21 22 21 20 19 19 19 19 19 19 20 21 20 20 20 20 20 20 20 20 20 21 21 21 20 19 19 19 19 19 19 19 19 19 19 19 19 19 19 19 19 19 20 20
28 28 28 27 27 26 26 27 27 26 24 21 18 16 15 16 16 16 17 17 16 16 16 15 14 15 16 15 15 15 15 14 13 12 13 14 16 18 19 18 18 19 21 21 20 19 19 19 19 19 18 18 19 19 19 19 19 20 20 20 20 19 19 20 20 20 20 19 19 19 19 19 19 19 19 19 19 19 19 19 19 19 19 19 19 19
26 25 25 26 27 27 27 26 25 23 20 16 15 15 15 15 15 15 15 15 15 15 15 13 11 12 15 14 14 14 14 14 13 12 12 14 16 18 19 17 17 17 18 18 17 17 17 18 19 19 19 18 18 19 19 19 19 19 19 19 19 18 18 19 19 19 19 19 18 18 18 18 18 18 18 18 18 18 18 18 18 18 18 18 18 19
24 24 25 26 26 26 24 23 22 20 18 17 16 16 15 14 13 13 14 14 15 14 14 12 10 9 11 13 15 16 16 15 14 14 13 14 14 16 17 15 14 13 14 16 17 18 19 20 20 20 20 19 19 19 19 19 18 18 18 18 17 17 17 17 17 18 18 18 18 18 18 17 17 17 17 17 17 17 17 17 17 17 17 17 18 19
24 25 26 26 25 23 21 21 20 19 19 19 18 16 14 13 12 12 13 13 13 13 13 14 13 12 12 15 17 17 17 16 15 14 13 13 13 15 15 13 12 12 14 16 19 21 21 21 20 19 19 18 17 16 17 16 16 16 16 16 16 15 15 15 16 17 17 17 17 17 17 17 16 16 16 16 16 16 16 16 16 16 16 17 18 18
22 23 23 23 21 19 18 18 19 18 18 17 16 14 13 12 12 12 12 12 11 11 12 14 14 14 14 14 13 13 13 14 13 11 10 10 11 13 14 14 14 14 15 15 13 13 16 18 18 16 16 15 14 14 14 14 14 14 15 15 15 15 15 15 16 16 16 16 16 16 16 16 16 16 15 15 15 15 15 15 15 15 15 16 16 17
18 18 18 18 18 18 19 19 19 18 17 15 14 14 13 13 13 13 13 12 11 11 12 14 14 15 14 10 7 5 7 11 12 10 10 9 11 14 16 16 16 17 16 12 6 3 7 10 12 11 12 13 14 14 15 15 15 15 16 16 17 17 17 17 17 17 17 17 17 16 16 16 16 16 15 15 14 14 14 14 13 13 13 13 14 14
17 17 17 18 19 21 22 21 20 18 16 15 15 14 14 14 14 15 14 13 12 11 11 13 14 14 14 12 8 6 9 13 14 12 12 12 14 17 17 16 17 17 16 14 10 6 5 5 8 11 13 15 17 18 18 18 18 18 18 19 19 19 19 19 19 19 19 19 18 17 17 16 16 16 15 14 14 13 13 13 13 13 12 12 13 13
18 18 18 19 21 22 22 21 19 17 16 16 15 15 15 15 15 15 15 14 13 13 13 13 13 13 14 14 14 14 15 16 16 14 13 13 14 15 16 15 15 15 14 14 14 13 10 9 12 15 17 17 18 18 19 19 18 18 18 19 20 20 20 20 20 20 21 20 19 18 17 17 17 16 16 15 14 13 12 12 12 12 12 12 12 13
20 20 20 20 21 21 21 19 18 17 16 15 15 15 15 16 16 15 15 14 14 14 14 13 13 13 13 13 14 16 17 16 15 13 13 13 13 14 15 15 15 15 14 14 15 15 14 15 15 15 16 17 17 17 17 17 18 18 18 18 19 20 20 20 20 21 21 21 20 19 18 18 17 17 17 16 16 15 14 13 13 12 12 11 11 12
20 20 20 19 19 19 18 17 16 16 15 15 15 15 15 15 15 15 14 14 14 14 15 14 14 14 13 13 14 15 16 16 15 14 14 14 15 15 16 16 16 16 15 15 14 14 13 14 14 14 13 15 16 16 16 16 17 18 18 19 19 20 20 20 20 21 21 21 20 20 19 18 18 18 17 17 17 16 15 15 14 14 13 12 11 11
18 18 17 17 17 16 16 15 15 14 14 14 14 15 15 15 15 15 14 14 14 14 14 15 15 15 15 15 15 16 17 17 17 16 15 15 16 16 16 16 16 16 15 15 15 14 13 14 14 14 14 13 14 15 15 15 16 17 18 19 19 19 19 19 19 19 19 19 20 20 19 19 18 18 17 17 16 16 16 15 15 14 14 13 12 12
15 15 15 15 14 13 13 13 13 13 13 14 14 14 15 15 15 14 14 14 14 14 14 15 15 15 15 15 17 18 18 18 18 18 17 17 17 17 16 16 16 16 15 15 14 14 14 14 14 14 13 12 12 12 14 15 15 15 16 17 18 19 20 19 19 19 19 19 20 20 20 20 19 18 18 17 16 15 15 15 14 14 13 13 14 14
13 13 12 12 11 11 11 11 12 12 12 13 13 14 14 15 14 14 14 14 14 14 14 14 15 15 15 15 16 18 19 19 19 19 19 18 18 18 17 17 16 16 15 15 15 14 14 12 10 9 9 12 13 14 15 15 15 15 15 16 18 19 20 20 20 20 20 20 21 21 21 21 20 20 19 17 16 15 14 14 13 13 13 13 14 14
12 12 11 11 10 10 10 11 12 13 14 14 14 14 14 14 14 14 14 14 14 14 13 13 14 15 16 16 17 17 18 18 19 19 19 19 19 18 18 17 17 17 16 16 16 15 15 13 11 8 8 10 13 15 16 15 15 15 15 16 17 18 19 20 20 21 21 21 22 22 22 22 22 21 20 18 17 15 14 13 12 12 12 12 13 14
12 11 11 11 11 11 11 12 13 14 15 14 14 13 13 13 13 13 14 13 13 12 13 13 14 15 16 16 16 17 17 18 18 18 19 19 19 19 19 18 17 17 17 16 16 15 15 14 14 14 14 13 14 15 15 15 15 15 14 14 14 14 15 16 18 20 21 21 22 22 22 22 22 22 21 19 17 15 13 12 12 11 11 11 12 13
11 11 11 11 12 12 13 14 14 14 14 13 13 13 13 13 12 13 13 13 12 12 13 14 14 15 14 15 16 16 17 17 18 18 18 18 18 19 19 19 18 18 17 17 16 16 15 15 15 16 16 16 16 16 16 16 16 15 15 14 14 14 15 15 16 18 20 21 22 22 22 21 22 22 21 19 17 14 12 12 11 11 11 11 11 12
11 11 12 12 13 14 15 14 13 12 12 11 11 11 11 11 11 12 12 12 12 12 13 13 13 13 13 14 14 14 15 16 16 17 17 17 17 17 18 18 18 18 18 16 16 15 15 16 16 16 16 16 16 15 15 16 16 16 15 14 14 15 15 15 16 18 18 19 20 21 21 21 21 21 20 18 16 13 12 11 11 10 10 11 11 12
11 12 13 13 14 14 14 13 12 11 10 10 10 10 11 12 12 13 12 12 12 12 12 12 12 13 13 14 14 13 13 14 14 15 15 15 15 16 17 18 18 19 18 17 15 15 15 15 16 16 16 16 15 15 15 16 16 16 15 15 14 12 11 12 14 16 16 17 18 19 20 20 20 19 19 16 14 12 10 10 10 10 10 11 11 12
13 14 14 14 13 12 11 11 10 10 10 10 10 11 12 13 14 14 13 12 12 12 12 12 12 13 13 13 13 13 13 12 12 13 14 15 15 15 16 17 18 18 19 18 16 15 14 14 15 15 15 15 15 15 15 15 16 15 15 14 13 12 11 12 14 16 17 18 18 18 18 18 18 17 16 14 12 10 9 9 9 10 10 11 11 12
14 14 13 12 11 11 10 10 10 10 10 10 11 11 12 13 14 13 12 12 12 12 12 12 12 12 11 12 12 13 13 12 12 12 13 14 15 15 16 17 17 18 18 18 18 16 15 14 14 14 14 14 14 14 14 15 15 15 15 14 13 13 14 15 16 17 18 18 18 17 16 15 15 14 12 11 10 9 9 9 9 9 10 11 11 12
12 12 12 11 10 10 9 9 10 10 10 10 11 12 13 13 13 12 12 12 12 11 11 11 11 10 10 11 12 13 13 13 13 13 13 14 15 15 16 17 17 17 18 18 18 18 18 16 14 13 13 13 13 14 15 15 14 14 14 14 13 13 14 14 16 17 17 16 15 14 13 12 11 10 9 9 9 8 8 8 9 9 9 10 11 11
11 11 11 10 10 9 9 10 10 10 10 11 11 12 13 12 11 10 10 10 10 10 11 11 10 10 10 11 11 12 13 14 14 14 14 14 14 15 16 17 18 18 18 18 18 18 18 18 17 15 13 12 12 13 14 14 13 13 13 13 13 12 13 13 15 16 15 13 11 9 8 7 7 7 7 7 7 8 8 8 8 8 8 9 9 10
11 11 10 10 10 10 9 9 9 10 10 11 11 12 12 11 9 8 8 9 9 10 10 10 10 10 11 11 11 12 12 13 14 14 14 14 14 15 15 16 17 18 17 17 16 15 15 16 16 17 16 14 12 12 13 13 13 12 12 12 12 11 12 12 14 14 12 9 7 5 5 4 4 5 5 5 5 6 7 7 7 7 7 7 7 8
10 10 10 10 10 9 9 9 10 10 10 11 11 11 12 10 8 7 7 8 9 10 10 10 11 11 11 11 11 12 12 12 13 13 13 14 14 14 15 15 16 16 16 15 14 13 13 13 13 14 15 16 15 13 13 13 12 12 11 11 11 11 11 12 12 12 9 6 5 4 3 3 3 3 3 3 3 4 5 5 5 5 5 5 6 6
10 10 10 10 9 9 9 10 10 10 11 11 12 11 10 8 6 6 7 8 9 10 10 11 11 11 11 11 11 12 12 12 12 12 13 13 13 14 14 15 15 16 15 14 12 11 9 9 9 10 11 13 15 16 15 13 12 11 10 10 11 11 11 11 10 9 6 5 4 3 2 2 2 2 2 2 2 2 3 3 3 4 4 4 4 4
10 10 10 9 9 9 9 10 10 11 11 11 12 11 8 5 6 7 8 9 10 11 11 11 11 11 11 11 11 11 12 12 12 12 12 13 13 13 14 14 15 15 14 13 11 10 8 6 5 6 6 8 9 13 15 13 11 9 8 9 11 11 10 9 8 6 4 3 2 2 1 1 1 1 2 2 2 1 1 2 3 3 4 3 3 3
Wind_Direction
291 293 295 295 295 294 293 292 292 291 291 291 293 294 296 297 296 296 297 297 297 296 296 297 298 300 302 304 306 307 306 306 305 304 302 300 298 297 296 295 294 293 292 291 289 288 286 285 283 282 281 280 279 278 277 277 276 275 275 274 274 273 272 272 271 271 271 271 271 271 272 272 272 273 274 274 275 276 278 281 283 285 283 280 278 275
292 293 294 294 294 292 291 291 291 289 289 289 290 292 294 295 296 296 296 297 296 295 294 294 295 296 297 299 301 302 302 302 302 302 301 299 297 296 295 294 294 293 292 291 290 288 286 284 283 282 281 280 279 278 278 277 277 277 277 276 276 275 274 274 273 272 271 271 270 270 271 271 271 271 272 273 274 275 276 278 281 285 285 284 281 278
294 294 294 294 293 291 290 291 290 289 287 287 288 290 291 292 293 294 295 296 296 295 293 293 293 293 294 295 296 298 298 299 300 300 299 297 295 295 294 293 293 292 292 291 290 288 286 284 283 281 280 280 280 279 278 278 279 280 279 279 278 278 277 276 276 275 275 274 273 272 272 271 271 272 271 272 272 272 272 273 276 279 280 280 279 277
291 291 293 294 292 290 289 289 290 289 287 287 287 288 289 289 290 291 293 295 295 295 295 293 293 292 291 292 293 295 295 296 297 296 295 294 293 293 292 292 292 291 291 290 289 289 287 285 284 282 280 280 279 279 278 278 279 279 278 278 277 276 275 275 274 274 274 273 273 273 273 272 272 273 272 271 271 270 270 270 272 274 275 276 276 276
288 288 290 292 291 289 289 289 289 290 288 288 287 287 288 288 289 291 293 294 294 294 294 294 293 292 290 290 291 293 294 294 294 294 293 292 292 291 291 291 290 290 290 289 288 288 287 287 285 284 281 280 279 278 277 276 276 276 275 274 274 273 272 272 271 271 270 269 269 269 269 269 270 271 271 272 271 270 269 269 270 271 272 273 274 275
285 286 287 287 287 287 288 289 290 290 290 289 289 288 288 288 288 289 291 292 293 293 293 293 293 292 291 290 290 291 292 293 294 293 292 291 290 290 289 289 289 289 289 288 288 287 286 286 285 284 283 281 279 277 276 276 275 274 274 273 273 272 272 271 271 270 269 269 269 268 268 268 268 268 269 269 269 269 269 269 269 269 270 271 272 273
284 284 284 284 283 283 284 286 287 288 289 289 290 290 290 289 288 288 288 289 290 291 292 292 292 291 291 290 290 291 292 293 293 293 292 291 291 290 289 288 288 288 288 287 287 286 286 285 284 283 282 280 279 277 276 275 274 274 273 273 272 272 271 271 271 271 271 271 271 270 270 269 268 268 268 267 267 268 268 268 269 269 269 270 270 271
283 283 282 282 282 282 282 282 284 285 286 286 288 290 292 292 292 291 290 289 289 289 290 292 292 292 292 292 292 292 292 293 293 293 293 292 291 291 289 289 288 288 287 287 287 286 285 284 284 283 283 281 280 278 277 276 275 274 274 273 273 272 271 271 271 271 271 270 270 270 270 269 269 269 268 268 268 268 268 268 269 269 269 269 270 270
280 281 281 280 280 281 282 282 283 284 284 284 284 286 291 293 294 294 294 292 290 289 289 290 292 293 293 293 293 292 291 291 291 292 292 292 291 291 290 290 290 289 288 287 286 285 285 284 283 283 282 282 281 280 279 278 277 276 275 275 274 273 272 273 273 272 272 271 271 271 269 269 269 268 268 267 267 267 267 268 268 268 269 269 269 270
276 277 278 277 276 275 277 279 282 283 282 281 280 281 284 287 290 293 294 293 292 291 288 287 288 291 293 294 294 293 292 291 290 289 289 289 288 288 288 288 287 287 287 287 286 285 284 283 282 281 280 280 279 279 278 276 275 274 273 273 272 272 272 273 273 274 275 274 274 274 272 273 272 271 269 268 268 267 267 267 267 267 267 268 268 269
273 273 273 273 273 272 271 274 278 281 281 280 278 278 279 279 282 286 288 291 293 293 291 288 287 288 291 294 294 294 294 293 292 291 290 289 288 287 286 286 286 287 288 289 288 287 286 285 283 282 280 279 278 277 276 274 273 272 272 271 271 271 271 272 272 272 273 273 274 274 274 274 274 274 272 272 271 271 270 269 269 268 267 267 267 269
270 270 270 271 271 272 272 273 275 278 280 280 278 277 278 277 278 280 281 286 290 292 292 291 289 288 288 291 293 294 293 293 293 293 293 292 291 289 288 288 288 288 290 291 291 291 290 290 288 287 285 283 282 280 278 277 276 275 275 275 275 274 274 273 273 272 272 272 272 272 272 272 272 272 272 272 272 272 272 271 271 270 269 268 268 269
268 268 268 269 269 269 272 275 277 279 279 278 276 276 278 281 283 283 281 283 286 288 290 290 289 288 288 288 289 290 290 291 292 293 294 294 293 292 289 289 288 288 290 290 290 291 292 292 291 291 290 288 286 285 283 281 280 279 278 278 278 278 277 276 275 274 273 272 272 271 271 271 272 272 271 271 271 271 271 271 270 270 269 269 268 268
269 269 267 266 266 268 273 276 278 278 279 276 273 274 279 285 289 289 285 284 284 285 285 286 287 288 288 287 286 286 287 288 291 294 295 295 294 293 290 288 287 288 289 286 286 288 290 289 289 289 289 288 286 286 285 284 283 282 281 280 280 280 279 279 278 276 274 273 273 273 272 271 271 271 271 271 271 270 270 270 270 269 269 268 268 268
281 282 280 279 279 280 281 282 279 276 275 274 274 278 285 290 292 291 288 285 284 285 284 285 286 288 288 286 285 285 285 286 289 293 297 298 298 297 293 289 288 288 286 284 284 286 288 286 285 285 287 287 287 287 287 286 285 284 283 283 282 281 280 279 278 276 274 274 274 274 273 271 271 271 270 270 270 269 269 269 269 269 269 268 268 267
295 295 293 292 289 287 285 283 278 273 272 275 281 288 293 293 292 291 287 286 285 285 284 285 287 288 287 287 286 287 289 291 294 298 301 301 301 300 297 292 288 287 286 284 283 285 286 285 284 284 286 287 289 290 289 288 286 285 284 284 282 280 279 277 276 276 276 276 275 274 273 272 271 270 269 269 268 268 268 268 268 268 268 267 267 267
286 286 285 284 283 284 285 281 275 272 276 284 291 294 294 292 291 288 285 283 281 280 279 279 281 284 286 286 288 292 299 304 305 304 303 301 301 300 298 292 287 285 286 284 283 282 284 284 284 285 286 287 289 290 289 288 287 285 284 283 281 279 276 276 275 276 276 275 275 275 274 273 271 270 268 268 267 267 267 266 266 266 266 266 266 267
275 276 278 280 281 283 285 281 277 277 283 290 294 295 295 294 291 287 283 279 276 275 275 273 272 271 273 280 287 296 305 310 309 305 303 301 300 300 299 293 287 284 284 283 282 282 283 283 283 283 284 285 286 287 287 286 284 283 282 281 279 277 275 274 274 275 275 274 274 274 273 272 271 270 268 268 267 267 267 266 266 266 266 266 267 267
275 276 277 278 280 280 278 275 276 282 288 292 294 295 296 295 292 287 282 279 276 273 273 272 269 266 267 277 290 300 307 310 309 305 302 300 300 300 300 296 290 284 282 282 282 281 282 281 281 281 282 283 284 284 284 283 282 281 280 279 277 275 274 274 274 275 275 275 274 274 273 272 271 269 268 268 268 267 267 267 267 267 267 267 268 268
283 279 276 275 277 278 278 277 280 286 289 292 294 296 295 293 289 284 278 276 275 273 271 269 266 269 280 291 298 302 307 309 308 306 302 300 299 299 300 298 293 287 284 283 283 283 282 281 281 281 282 283 284 283 282 282 281 281 279 278 276 275 274 274 275 276 276 276 275 275 273 272 271 269 268 268 268 267 267 267 267 268 268 268 268 269
289 286 283 282 282 283 283 282 281 283 287 291 294 294 291 288 282 277 274 272 271 270 267 265 273 288 298 300 300 300 303 305 306 304 302 299 297 297 298 297 294 290 287 285 285 285 282 281 280 280 282 284 284 283 282 282 282 281 278 277 276 275 274 275 276 277 278 277 276 275 274 273 271 269 268 268 267 267 267 267 268 268 268 268 268 269
284 284 285 284 283 281 279 277 276 278 284 290 291 288 285 281 278 276 275 274 274 273 275 285 298 302 302 298 295 295 297 298 299 299 298 295 293 294 296 297 295 292 289 288 289 288 286 283 282 282 284 284 284 283 282 281 281 281 279 278 277 276 275 276 277 278 278 278 277 276 274 273 271 269 268 268 267 267 267 268 268 268 268 268 268 269
278 279 282 283 281 278 276 275 274 278 285 289 288 284 283 281 280 283 287 292 296 301 305 307 305 302 296 292 290 290 291 292 294 294 292 289 289 291 295 296 295 292 290 290 291 292 291 287 285 285 285 284 282 281 280 280 280 280 279 278 277 276 276 277 278 279 279 279 278 276 275 273 271 269 268 267 267 267 267 267 268 268 268 268 269 270
278 280 283 283 281 279 276 275 277 282 288 290 289 289 291 291 294 298 305 308 308 305 303 302 300 296 292 288 286 286 288 289 290 290 288 284 285 288 292 294 294 292 290 290 292 293 292 290 288 287 286 284 282 281 280 279 278 278 278 277 278 279 280 280 280 280 280 279 278 276 274 273 271 269 268 267 267 267 267 267 267 268 268 268 269 270
277 280 282 283 283 282 281 282 285 288 291 292 295 300 308 310 310 309 307 304 302 301 299 297 294 291 289 289 287 285 286 288 288 286 285 284 285 287 290 291 291 290 289 290 291 292 291 290 290 289 286 284 282 281 280 279 278 277 276 277 279 281 283 283 282 281 280 279 277 275 274 272 271 269 267 267 266 267 267 267 267 267 268 269 270 271
277 279 281 284 285 286 287 288 289 291 293 296 304 313 319 318 313 307 303 301 300 301 301 298 293 291 291 290 287 285 288 290 288 284 284 286 287 288 289 289 288 287 288 290 291 292 292 292 292 291 289 285 283 282 280 278 276 275 274 276 278 280 281 281 281 280 279 278 276 274 273 272 270 269 267 266 266 266 266 267 267 267 268 269 270 271
280 282 284 285 286 287 288 288 288 288 291 299 310 318 320 318 314 308 303 303 304 305 303 299 295 294 295 292 290 289 291 291 288 285 285 287 287 287 287 287 288 288 290 292 294 296 297 296 295 294 292 288 285 283 281 278 275 272 271 273 275 276 278 278 278 278 277 276 274 273 271 270 269 268 267 266 265 265 266 266 267 267 268 269 270 271
283 285 286 286 286 285 284 283 281 282 287 296 305 312 316 316 314 308 304 306 308 306 300 295 293 295 296 294 293 293 293 289 286 284 284 283 281 281 283 287 291 297 301 301 301 300 299 295 293 292 291 289 287 284 282 279 275 272 270 271 272 273 274 275 276 275 275 274 272 271 270 269 267 266 265 265 265 265 265 265 266 267 268 269 270 271
285 285 285 284 282 280 278 275 276 280 288 297 303 308 309 310 307 304 303 307 307 303 295 292 291 292 293 293 293 293 290 286 283 281 278 276 275 277 283 290 298 305 309 305 302 298 294 290 288 287 286 286 284 282 280 279 276 273 271 271 271 270 270 271 272 272 272 270 269 269 268 267 265 264 263 263 263 263 263 264 265 267 268 268 269 270
289 288 287 285 284 283 282 283 286 291 296 301 305 307 307 308 307 305 305 306 303 297 292 291 290 290 291 293 293 291 287 285 284 283 282 280 279 282 288 293 297 299 301 302 300 295 290 288 285 282 282 284 285 285 285 284 281 278 276 275 274 271 269 269 270 270 269 268 267 266 266 265 263 262 261 260 260 260 260 261 263 265 267 267 268 268
298 297 296 296 298 300 301 302 302 303 305 308 310 311 311 313 313 312 310 306 299 292 289 289 288 287 288 289 290 288 286 287 288 291 296 294 288 287 290 292 292 292 293 290 288 285 288 288 286 286 291 298 302 303 301 298 294 290 286 283 279 276 273 271 271 270 268 266 265 264 264 264 263 261 260 259 258 258 258 259 260 261 263 264 265 267
308 306 306 308 310 310 309 307 306 306 309 312 313 314 315 316 316 315 312 305 298 291 287 286 286 285 284 281 279 278 281 285 288 291 296 291 286 285 286 285 285 286 285 278 273 275 289 296 297 301 307 308 307 306 304 301 297 293 290 286 283 279 277 275 273 270 268 265 264 263 263 264 263 262 260 258 257 257 257 257 257 258 260 262 264 266
311 310 310 310 310 309 307 306 305 307 310 312 314 314 314 314 314 313 310 305 299 293 288 286 285 284 282 279 277 277 279 282 285 288 289 285 283 283 283 281 280 281 281 277 276 280 286 290 293 296 298 297 297 297 297 296 294 292 290 288 285 283 281 279 275 271 268 265 263 262 263 263 263 262 261 259 256 255 255 254 253 254 256 260 264 268
311 310 309 308 308 307 306 305 305 307 310 312 312 313 312 312 312 310 307 303 299 296 291 285 281 281 282 281 280 279 279 281 284 287 288 287 287 288 290 289 288 288 288 286 284 284 283 283 285 288 290 290 290 291 291 292 292 291 291 289 287 286 284 282 278 273 269 266 264 263 263 263 264 263 262 260 257 255 254 253 252 251 253 258 263 269
310 308 306 306 305 305 304 305 306 308 310 310 311 310 310 310 310 309 306 303 300 298 295 289 283 279 278 279 281 282 283 284 286 288 289 290 289 290 291 290 290 291 290 288 286 284 282 280 281 283 287 290 290 289 288 289 290 290 290 290 289 288 287 284 280 276 272 268 266 264 264 265 265 264 263 262 259 258 256 256 255 254 254 256 261 267
307 304 302 302 302 302 302 304 306 307 308 308 308 309 310 310 311 310 308 306 304 301 297 293 288 282 278 278 278 280 282 284 286 287 287 286 285 284 284 283 284 285 285 284 283 283 283 283 282 282 283 285 288 289 289 289 290 291 290 290 289 289 288 286 283 279 275 272 269 268 267 267 267 266 265 263 261 259 258 258 257 257 256 255 257 261
303 300 298 298 298 298 298 300 303 304 304 305 306 308 311 313 314 313 311 310 308 305 300 296 291 286 282 279 278 278 280 282 284 285 285 283 282 280 278 279 280 281 280 281 283 284 284 284 284 283 282 280 282 286 289 291 291 290 289 289 289 288 288 286 284 281 278 276 274 273 273 272 271 269 267 263 261 259 258 258 258 258 258 257 258 260
300 297 296 295 295 296 297 299 300 301 302 304 307 310 314 316 317 316 314 312 310 307 303 298 294 291 290 286 284 284 283 284 284 285 285 283 281 278 277 278 279 278 278 279 282 284 284 284 284 283 282 280 280 282 285 288 289 289 288 288 287 286 284 282 281 279 278 277 277 277 277 276 275 273 269 265 261 258 258 258 258 259 259 260 262 264
299 296 295 295 297 298 300 300 301 302 305 308 311 314 317 319 318 316 314 313 311 307 303 299 296 295 297 296 293 289 287 286 286 287 287 285 281 278 277 277 278 278 278 278 278 279 278 278 277 278 280 281 281 282 282 282 283 284 287 288 287 284 281 279 276 274 273 274 275 276 277 277 276 275 271 266 261 259 258 258 259 259 260 262 265 267
297 296 295 297 299 301 300 300 302 305 310 315 318 319 320 320 318 316 315 313 309 305 302 303 303 301 300 297 294 290 289 290 292 293 292 290 286 282 278 276 276 276 277 277 275 273 272 272 272 273 275 277 280 281 281 281 281 282 285 286 286 284 280 277 274 271 270 270 271 272 273 274 274 272 269 265 261 258 258 258 259 259 260 264 269 273
294 295 297 300 302 302 302 303 307 311 316 319 321 321 321 319 317 315 313 311 308 305 306 306 306 303 299 295 292 291 292 295 297 298 297 296 294 290 284 279 276 274 274 273 271 269 267 267 268 270 271 273 276 278 279 281 282 283 284 283 283 285 284 280 276 273 271 270 269 269 269 269 269 269 266 262 259 256 256 257 259 260 261 265 269 277
295 298 301 302 303 304 307 310 312 314 316 318 318 318 317 315 313 310 308 308 307 307 309 308 307 305 300 297 293 291 292 296 300 302 302 301 300 297 292 286 281 277 274 270 267 265 263 262 263 265 267 269 273 276 278 280 282 283 284 283 285 288 289 286 281 278 275 272 270 269 267 266 265 264 262 259 256 254 253 256 258 261 263 266 271 277
299 301 303 303 304 307 310 311 312 313 316 317 317 315 313 313 311 309 307 305 306 307 309 309 308 305 302 300 299 297 297 299 302 304 305 306 306 303 300 295 291 285 278 271 267 265 263 262 260 261 263 266 269 273 277 279 281 281 281 282 285 289 289 287 285 284 281 278 275 272 268 264 261 259 258 256 254 252 253 256 258 261 263 267 273 279
302 302 304 304 305 307 308 308 311 315 318 317 314 311 310 311 312 310 307 304 304 306 308 308 308 306 303 301 303 305 306 307 308 308 309 312 312 310 307 302 297 291 283 272 267 266 266 264 262 262 262 264 267 270 273 276 278 279 279 280 281 281 281 284 287 287 286 284 280 276 269 263 259 257 255 253 251 251 252 256 258 260 263 268 275 283
303 303 304 304 304 305 306 308 313 316 316 313 309 307 307 310 312 311 308 307 309 311 312 313 312 309 306 307 310 313 315 315 314 313 313 316 317 315 312 307 300 293 285 276 269 265 263 263 265 266 266 266 266 267 269 271 274 276 278 279 279 279 279 282 285 286 285 283 279 274 268 261 255 252 250 248 248 248 251 254 257 261 265 272 279 286
304 303 302 302 302 303 306 311 314 314 311 307 304 302 304 308 310 311 311 314 316 317 318 318 315 312 310 313 316 317 318 317 317 316 316 317 318 318 317 314 309 302 294 285 277 270 264 261 262 266 267 266 265 264 264 266 269 272 275 277 279 281 283 284 284 283 281 277 272 266 261 254 247 243 242 244 245 246 248 252 257 264 271 279 285 290
303 302 302 302 304 306 308 310 310 309 305 301 298 298 301 305 308 312 317 322 324 323 322 320 316 313 311 312 314 316 316 316 317 318 319 319 320 321 322 322 321 317 310 301 291 281 272 266 262 259 259 260 262 263 263 263 264 267 270 274 278 282 285 287 286 284 280 272 262 255 250 241 235 232 235 239 243 246 250 254 260 269 278 286 291 294
303 301 302 303 305 306 307 307 305 302 299 298 297 299 301 303 304 309 321 327 328 326 323 320 317 314 311 311 311 311 312 313 315 317 320 322 325 326 327 328 328 326 323 316 306 295 285 277 268 259 253 250 253 259 262 263 263 263 266 271 276 281 284 285 285 282 276 263 251 242 235 226 220 221 228 236 244 251 256 261 268 277 287 294 297 296
300 298 298 300 301 302 302 303 301 298 297 299 299 300 301 303 310 323 333 333 331 328 324 321 318 316 314 313 312 312 313 314 316 318 323 326 329 332 332 333 333 333 330 327 321 312 301 292 281 269 258 249 248 252 258 262 263 264 266 270 275 278 281 280 280 278 270 257 244 236 227 221 219 219 222 226 240 254 264 272 281 290 299 301 300 297
297 295 294 293 294 296 298 299 298 296 296 297 296 296 298 307 328 343 341 337 332 329 326 322 319 317 314 314 315 316 318 319 320 322 327 331 333 335 335 336 337 338 337 337 335 329 316 303 293 286 275 260 252 249 251 257 262 264 266 270 274 276 275 274 274 274 269 258 249 242 234 226 225 225 217 212 224 252 276 293 304 307 308 307 305 302
296 292 290 288 288 291 294 296 296 296 297 296 294 294 299 320 341 342 338 335 333 330 326 322 318 314 312 313 316 319 322 322 322 324 329 333 335 336 337 339 341 342 341 341 341 340 335 324 311 302 295 285 268 255 252 258 265 267 266 269 273 275 273 269 269 273 273 266 253 238 223 211 204 199 195 202 212 241 305 328 326 320 319 320 321 320
Height
790 789 788 787 786 784 782 781 780 778 776 775 773 772 771 770 769 767 766 766 764 763 762 760 759 757 756 754 753 752 751 751 750 750 749 748 748 747 747 746 746 746 745 745 744 744 743 743 743 742 742 742 741 741 741 741 740 740 740 740 739 739 739 739 739 738 738 738 738 738 738 737 737 737 737 736 736 736 736 735 735 735 735 736 736 736
789 788 786 786 785 783 780 779 778 777 776 774 772 771 770 769 767 766 765 764 763 762 761 759 758 756 755 753 752 751 750 749 749 748 747 747 746 746 745 745 744 744 743 743 742 742 742 741 741 741 740 740 739 739 739 739 738 738 738 737 737 737 737 737 736 736 736 736 736 736 736 736 736 735 735 735 735 734 734 734 733 733 734 734 734 734
788 786 785 784 783 781 779 777 776 776 775 773 771 770 769 768 766 765 763 762 761 760 760 758 757 755 754 752 751 749 749 748 747 746 746 745 745 744 743 743 743 742 742 741 741 740 740 739 739 738 738 738 737 737 737 737 736 736 736 736 736 735 735 735 735 735 734 734 734 734 734 734 734 733 733 733 733 733 733 732 732 732 732 732 732 732
787 785 783 782 781 780 778 776 775 774 773 771 770 769 768 766 765 763 762 761 760 759 758 757 756 754 752 751 749 748 747 746 746 745 744 744 743 742 742 741 741 741 740 740 739 738 738 737 737 737 736 736 736 735 735 735 735 735 734 734 734 734 734 733 733 733 733 733 732 732 732 732 732 732 731 731 731 731 731 731 731 731 731 731 731 730
786 784 782 781 779 777 776 775 774 772 771 770 769 767 766 765 764 762 761 760 759 757 756 755 754 753 751 750 748 746 746 745 744 743 743 742 741 741 740 740 739 739 738 737 737 736 736 736 735 735 735 734 734 734 733 733 733 733 733 732 732 732 732 731 731 731 731 731 731 731 730 730 730 730 730 730 729 729 729 729 729 729 729 729 729 729
783 782 781 780 778 776 774 773 772 771 770 768 767 766 765 763 762 761 760 758 757 756 755 753 752 751 750 748 747 745 744 743 742 741 741 740 739 739 738 738 737 737 736 736 735 735 734 734 734 733 733 732 732 732 731 731 731 731 731 730 730 730 730 729 729 729 729 729 728 728 728 728 728 728 728 728 728 727 727 727 727 727 727 727 727 727
781 780 779 778 776 775 773 772 771 770 769 767 765 764 763 762 761 759 758 757 756 754 753 751 750 749 748 746 745 744 743 742 741 740 739 738 737 737 736 736 735 735 734 734 733 733 733 732 732 731 731 731 730 730 730 730 729 729 729 728 728 728 728 727 727 727 727 726 726 726 726 726 726 726 726 726 726 726 726 726 725 725 725 725 725 725
779 778 777 776 774 772 771 770 769 768 767 766 764 763 761 760 759 758 756 755 754 753 751 750 748 747 746 745 744 743 741 741 739 738 737 736 736 735 735 734 734 733 732 732 732 731 731 731 730 730 730 729 729 728 728 728 727 727 727 727 726 726 726 726 725 725 725 725 725 725 724 724 724 724 724 724 724 724 724 724 724 723 723 723 723 723
778 776 775 774 773 771 769 768 767 767 766 765 763 762 760 758 757 756 754 753 752 751 750 748 746 745 744 743 742 741 740 739 738 737 736 736 735 734 733 733 732 731 731 731 730 730 730 729 729 728 728 728 727 727 726 726 726 726 725 725 725 724 724 724 724 723 723 723 723 723 723 722 722 722 722 722 722 722 722 722 722 722 722 721 721 721
776 775 772 771 771 770 768 766 765 764 764 763 762 761 760 757 755 754 752 751 750 749 749 747 746 743 742 741 740 740 739 737 736 736 735 734 733 733 732 731 731 730 729 729 728 728 728 727 727 727 726 726 726 725 725 725 724 724 724 723 723 723 722 722 722 722 721 721 721 721 721 721 721 721 721 720 720 720 720 720 720 720 720 720 720 720
773 772 770 769 768 767 766 765 763 762 762 761 760 759 758 756 755 753 751 749 747 747 746 745 744 742 741 739 738 738 737 736 735 734 733 732 731 731 730 730 729 728 727 727 726 726 726 726 725 725 725 724 724 724 723 723 722 722 722 721 721 721 721 720 720 720 720 720 720 719 719 719 719 719 719 719 719 718 718 718 718 718 718 718 718 718
770 769 768 766 766 765 764 763 761 761 760 759 758 756 755 754 753 752 750 747 746 745 744 743 742 741 740 738 737 736 735 734 733 732 731 730 730 729 728 728 727 726 726 725 724 724 724 723 723 723 722 722 722 722 721 721 721 721 720 720 719 719 719 718 718 718 718 718 717 717 717 717 717 717 717 717 717 717 717 716 716 716 716 716 716 716
768 767 766 765 764 763 762 761 760 759 758 757 756 754 752 751 751 750 748 746 744 743 742 741 740 739 738 737 736 735 734 733 731 731 730 729 728 728 727 726 725 725 724 723 722 722 721 721 721 721 721 720 720 720 720 720 719 719 719 718 718 717 717 716 716 716 716 716 716 716 716 716 715 715 715 715 715 715 715 715 715 715 715 715 715 715
766 765 764 763 762 761 760 759 758 757 756 755 754 752 750 749 749 748 746 744 743 742 741 739 738 737 736 735 735 734 733 731 730 729 728 727 727 726 726 725 724 723 723 722 721 720 720 720 719 719 718 718 718 718 718 718 718 717 717 716 716 716 715 715 714 714 714 714 714 714 714 714 714 714 713 713 713 713 713 713 713 713 713 713 713 713
765 764 763 761 760 759 759 758 756 755 753 752 751 750 749 748 747 746 745 743 741 740 740 738 737 736 735 734 733 732 731 730 729 727 726 726 725 725 725 724 722 721 721 720 719 718 718 718 718 717 716 716 716 716 716 716 716 715 715 715 714 714 713 713 713 712 712 712 712 712 712 712 712 712 712 712 712 712 712 712 712 711 711 711 711 711
765 764 762 760 759 758 757 756 755 753 751 751 750 749 748 747 746 745 743 741 740 739 738 737 736 735 733 732 731 731 730 729 728 727 726 724 723 724 724 723 721 720 719 719 718 717 716 716 716 716 715 714 714 714 714 714 714 713 713 713 712 712 712 711 711 711 711 711 711 710 710 710 710 710 710 710 710 710 710 710 710 710 710 710 710 710
764 763 761 759 757 756 755 754 753 751 750 749 748 748 747 746 744 743 741 740 739 738 737 736 735 733 731 730 730 730 729 728 727 726 725 723 721 721 722 721 720 719 718 717 716 716 715 715 714 714 713 713 712 712 712 712 712 711 711 711 711 711 710 710 710 709 709 709 709 709 709 709 708 708 708 708 708 708 708 708 708 708 708 708 708 708
761 760 759 757 755 754 753 752 751 750 749 748 747 746 745 744 743 741 740 739 738 736 735 734 734 732 731 729 728 728 728 727 726 725 724 722 720 720 720 720 719 717 716 715 714 714 714 713 713 712 711 711 711 711 711 711 710 710 710 709 709 709 709 709 708 708 708 707 707 707 707 707 707 706 706 706 706 706 706 706 706 706 706 706 706 706
758 758 757 755 753 752 751 751 750 748 747 746 746 745 743 742 741 740 739 737 736 735 734 732 731 730 729 728 727 727 727 727 726 725 723 721 719 718 718 718 717 716 714 713 712 712 712 711 711 710 710 709 709 709 709 709 709 708 708 708 708 707 707 707 707 706 706 706 706 706 705 705 705 705 705 705 705 705 705 705 705 705 705 704 704 704
756 755 754 753 751 750 749 748 748 747 746 745 744 743 742 741 739 738 736 735 734 733 732 731 730 729 728 727 727 727 726 726 725 724 722 721 718 717 716 716 716 714 713 711 710 710 710 710 709 708 708 707 707 707 707 707 707 706 706 706 706 706 706 706 705 705 705 704 704 704 703 703 703 703 703 703 703 703 703 703 703 703 703 703 703 702
756 754 753 752 751 749 747 746 746 746 745 744 743 742 741 739 737 735 734 733 732 731 730 729 728 728 728 727 727 726 726 725 724 723 721 720 718 716 716 715 714 713 711 709 708 708 708 708 707 706 706 706 706 706 706 705 705 705 705 704 704 704 704 704 704 703 703 703 702 702 702 701 701 701 701 701 701 701 701 701 701 701 701 701 701 701
755 753 751 751 750 748 746 745 744 743 743 743 742 740 739 736 735 733 731 731 730 730 729 728 728 728 728 727 726 726 725 724 724 722 721 719 717 715 714 714 713 711 710 708 707 707 706 706 705 705 704 704 704 704 704 703 703 703 703 703 702 702 702 702 702 702 701 701 701 701 700 700 700 700 700 700 700 700 700 700 700 700 700 699 699 699
752 751 749 749 747 746 744 743 742 741 741 741 740 738 736 735 733 732 731 731 730 730 729 728 728 727 727 726 725 724 724 723 722 721 721 718 716 713 713 713 712 710 708 707 706 705 705 704 704 703 702 702 702 702 702 702 701 701 701 701 701 701 701 700 700 700 700 699 699 699 699 698 698 698 698 698 698 698 698 698 698 698 698 698 698 697
750 748 747 746 745 744 742 741 740 739 739 738 737 736 735 733 732 732 731 731 730 730 729 728 727 726 725 724 724 723 722 721 721 720 719 717 714 713 712 712 711 709 706 706 705 704 703 702 702 701 701 700 700 700 700 700 700 700 699 699 699 699 699 698 698 698 698 698 697 697 697 697 696 696 696 696 696 696 696 696 696 696 696 696 696 696
747 746 745 744 743 742 741 740 739 738 737 736 735 734 733 732 732 731 730 730 729 729 728 726 725 724 723 722 721 721 720 720 719 719 717 715 713 711 711 711 710 708 706 704 704 703 702 701 700 699 699 698 698 698 698 698 698 698 697 697 697 697 697 697 696 696 696 696 696 696 695 695 695 695 695 695 695 695 695 695 695 695 695 695 694 694
745 744 743 742 741 741 740 739 738 736 736 735 734 733 732 731 731 730 729 729 728 727 726 725 724 722 721 721 720 719 718 718 718 717 716 715 712 711 710 710 709 707 705 703 702 702 701 699 698 697 697 696 696 696 696 696 696 696 696 696 696 695 695 695 695 695 695 694 694 694 694 694 693 693 693 693 693 693 693 693 693 693 693 693 693 693
743 742 742 741 740 739 738 737 736 735 734 733 732 732 731 731 730 729 728 727 727 726 726 724 722 721 720 719 718 717 716 716 716 716 716 715 712 710 709 709 708 706 704 702 701 701 700 698 697 696 696 695 694 694 694 694 694 694 694 694 694 694 693 693 693 693 693 693 693 692 692 692 692 692 692 692 692 692 692 692 692 692 692 691 691 691
741 740 740 739 738 737 736 735 734 733 732 731 731 731 730 730 729 728 727 726 726 726 725 723 721 720 718 717 716 716 716 716 715 715 715 714 712 709 707 707 707 706 704 702 701 699 699 697 696 695 694 693 693 692 692 692 692 692 692 692 692 692 692 692 691 691 691 691 691 691 691 691 691 691 691 691 690 690 691 691 691 690 690 690 690 689
738 738 737 736 735 734 734 733 731 731 730 729 729 729 729 729 728 728 726 726 726 725 723 722 721 719 718 716 715 715 714 714 714 714 713 713 710 708 707 706 706 705 704 702 700 698 697 696 695 694 693 692 691 691 691 691 691 691 691 691 691 691 691 690 690 690 690 689 689 689 689 689 689 689 689 689 689 689 689 689 689 689 689 689 688 688
736 736 735 734 734 733 732 731 730 730 729 728 728 727 727 727 726 726 726 725 725 724 722 721 720 719 717 716 715 713 712 712 712 712 712 711 709 707 706 706 705 705 704 703 700 697 695 693 693 692 691 691 690 690 690 690 690 690 690 690 689 689 689 689 689 688 688 688 688 688 688 688 688 688 688 688 688 688 688 688 688 688 688 687 687 686
735 734 734 733 732 732 731 731 730 729 728 727 726 726 725 725 725 724 724 724 723 723 721 720 719 718 717 716 714 712 710 711 711 712 711 711 708 706 706 706 705 704 704 703 701 697 693 691 691 691 691 690 689 689 689 689 689 689 689 688 688 688 688 687 687 687 687 686 686 686 686 686 686 686 686 686 686 686 686 686 687 687 686 686 686 685
734 733 732 731 731 731 731 730 729 728 727 726 725 724 724 724 723 723 722 722 722 721 720 719 718 717 716 716 714 712 710 710 711 711 711 710 708 706 706 705 704 702 702 702 701 697 694 691 690 690 690 690 689 688 688 688 688 688 687 687 686 686 686 686 686 686 685 685 685 685 685 685 685 685 685 685 685 685 685 685 685 686 685 685 684 684
732 731 730 729 729 729 729 728 727 726 726 724 724 723 722 722 722 721 721 721 720 720 719 718 717 716 715 714 713 711 710 710 710 710 710 709 707 705 704 703 702 701 700 700 699 697 696 693 691 691 690 690 689 688 687 687 687 686 686 686 685 685 684 685 684 684 684 683 683 683 683 684 684 684 684 684 684 684 684 684 684 684 684 683 683 682
730 729 728 727 727 727 727 726 726 725 724 723 722 722 721 721 720 720 719 719 718 718 717 717 716 715 714 713 711 710 709 709 709 709 709 708 706 704 703 702 701 700 699 698 697 696 695 694 693 691 690 689 688 687 687 686 686 685 685 685 684 683 683 683 682 682 682 681 681 682 682 682 682 682 682 683 683 683 683 683 682 682 682 682 682 681
728 727 727 726 726 726 725 725 724 723 723 722 721 720 720 719 718 718 717 717 716 716 716 715 714 714 713 712 710 709 708 707 707 708 707 707 706 704 703 702 701 700 699 697 696 695 694 693 692 691 690 688 687 686 686 685 685 684 683 683 682 682 681 681 681 680 680 680 680 680 680 681 681 681 681 681 681 681 681 681 681 681 681 681 681 681
727 726 726 725 725 724 724 723 722 722 721 721 720 719 718 717 717 716 716 715 715 714 714 713 713 712 711 711 710 708 707 706 706 706 706 706 705 704 702 701 700 699 698 696 695 694 693 691 691 690 689 687 686 685 684 684 683 683 682 681 681 681 680 680 679 679 679 678 678 678 679 679 679 679 680 680 680 680 680 680 680 680 680 680 680 679
726 725 725 724 723 723 722 722 721 721 720 719 718 717 716 716 715 714 714 714 713 713 712 711 711 710 710 709 708 707 706 705 704 704 704 704 703 702 701 700 699 698 697 696 694 693 692 691 689 688 688 687 685 684 683 683 682 682 681 681 680 679 679 678 678 678 677 677 677 677 677 677 677 678 678 678 679 679 679 679 679 679 678 678 678 678
725 724 724 723 722 722 721 721 720 720 719 718 717 716 715 714 713 713 712 712 711 711 711 710 709 708 708 707 706 706 705 704 703 702 702 702 701 701 700 698 697 696 696 695 694 693 691 690 689 687 686 685 684 683 683 682 681 681 680 679 679 678 678 677 677 677 676 676 676 676 676 676 676 676 676 677 677 677 677 677 677 677 677 677 677 677
724 723 723 722 721 721 721 720 719 718 717 716 716 714 713 713 712 711 711 711 710 710 709 708 708 707 706 705 705 704 703 702 701 701 700 700 700 699 698 697 696 695 694 694 693 692 691 690 688 687 686 684 683 682 681 681 681 680 679 678 677 677 676 676 676 676 675 675 675 675 675 675 675 675 675 675 676 676 676 676 676 676 676 676 676 676
723 722 722 721 721 720 720 719 718 717 716 715 714 713 712 711 711 711 710 710 709 709 708 707 706 706 705 704 703 702 701 700 700 699 698 698 697 697 696 696 694 693 693 692 691 691 690 689 688 686 685 684 682 681 680 679 679 679 678 677 676 675 675 674 674 674 674 674 674 673 673 673 673 673 673 674 674 675 675 675 676 675 675 675 675 675
722 721 721 720 720 719 718 717 716 716 715 714 713 712 711 711 710 710 709 709 708 707 706 706 705 704 703 702 701 700 699 698 698 697 696 696 696 695 694 694 693 692 691 690 690 689 688 687 686 685 684 683 681 680 679 678 678 677 677 676 675 674 673 673 673 672 672 672 672 672 672 672 672 672 672 672 673 673 674 674 674 675 674 674 674 674
721 720 720 719 718 718 717 716 715 714 713 713 712 711 711 710 710 709 708 708 707 706 705 705 704 703 701 700 699 699 698 697 696 696 695 695 694 693 693 692 691 690 689 688 687 687 686 686 685 684 683 681 680 679 678 677 676 676 676 675 674 673 672 672 671 671 671 671 670 670 670 671 670 670 671 671 672 672 673 673 674 674 674 674 673 673
720 719 719 718 717 716 716 715 714 713 713 712 711 711 710 710 709 708 708 707 706 705 704 704 703 702 701 699 698 697 696 696 695 695 694 693 692 692 691 690 689 688 688 687 686 685 684 683 683 682 681 680 679 678 677 676 676 675 675 674 674 673 672 671 670 670 669 669 669 669 669 669 669 669 670 670 671 671 672 672 673 673 673 673 672 672
719 718 717 717 716 715 715 714 713 712 712 711 711 710 710 709 708 708 707 706 705 704 704 703 702 701 699 698 696 696 695 694 694 693 693 692 691 690 690 689 687 686 686 685 684 683 682 681 681 680 679 679 678 677 676 675 675 674 673 673 673 672 671 670 669 668 668 668 667 667 667 667 667 668 668 669 670 671 671 672 672 672 672 672 672 671
718 717 716 716 715 714 714 713 712 712 711 711 710 710 709 708 707 707 706 706 705 704 703 702 701 700 698 697 696 695 694 693 693 692 691 691 690 689 688 687 686 685 684 683 682 681 681 680 679 678 678 678 677 676 676 675 674 673 672 672 671 671 670 669 668 668 667 666 666 666 666 666 667 667 668 669 669 670 671 671 671 671 671 671 671 671
716 716 715 715 714 713 713 712 712 711 711 710 710 709 708 707 706 706 705 705 704 703 702 701 701 700 698 697 696 695 694 692 691 691 690 689 688 688 687 686 685 683 682 681 680 680 679 678 677 677 677 676 676 675 674 674 673 672 671 671 670 670 669 668 667 666 666 666 666 666 666 666 666 667 667 668 669 670 670 671 671 671 671 671 670 670
716 715 714 714 713 712 712 711 711 711 710 709 709 708 707 706 706 705 705 704 703 703 702 701 700 699 698 697 696 695 694 692 691 690 689 688 687 686 686 684 683 682 681 679 678 677 677 676 676 676 676 675 674 673 672 672 672 671 670 670 669 669 668 667 666 666 665 665 665 665 665 666 666 667 667 668 668 669 670 670 670 670 670 670 670 669
715 714 713 713 712 712 711 711 710 710 709 708 708 707 706 706 705 704 704 703 703 702 701 701 700 699 697 697 696 695 694 692 691 690 688 687 686 686 684 683 682 681 679 678 676 676 675 674 674 674 674 673 673 672 671 671 670 670 669 669 668 668 667 666 666 665 665 665 665 665 666 666 666 666 667 668 668 669 669 669 670 670 670 669 669 669
714 713 713 712 712 711 711 710 710 709 708 708 707 706 705 705 704 704 703 703 702 702 701 700 699 698 697 696 695 694 693 692 691 689 688 687 686 685 684 682 681 680 678 677 676 674 673 672 672 671 671 671 671 671 670 669 669 668 668 668 668 667 667 666 666 665 665 665 665 666 666 666 666 666 667 668 668 669 669 669 669 669 669 669 668 668
713 713 712 711 711 711 710 709 709 708 707 707 706 705 704 704 704 703 703 703 702 701 701 700 699 698 697 696 695 694 693 691 691 689 688 687 686 685 684 682 681 679 678 676 675 674 672 671 671 670 670 670 669 669 669 668 668 667 667 667 667 666 666 666 665 665 665 665 665 666 666 666 666 667 667 668 668 668 669 669 669 669 669 668 668 668
712 712 711 711 710 710 709 709 708 707 707 706 705 704 704 703 703 703 703 702 702 701 701 700 699 698 697 696 695 694 693 692 691 689 688 687 686 685 684 683 682 680 679 677 675 674 672 671 670 669 669 668 668 668 668 667 667 666 666 666 666 666 666 666 665 665 665 665 666 666 666 666 666 667 667 668 668 668 668 668 668 668 668 668 668 667